WMT485 LROP-LGAV

Flight info

Callsign WMT485
Flight time N/A
Altitude 33000
Route POLUN DCT TIMUR N181 NIKTI DCT KOROS/N0461F320 UT162 NEVRA
Aircraft A21N/M-SDE2E3FGHIRWXY/LB1

Departure

Time 2026-05-04 11:37
Airport Bucharest Henri Coandă International Airport (LROP)

Arrival

Time N/A
Airport Athens Eleftherios Venizelos International Airport (LGAV)
Time Latitude Longitude Altitude Speed Heading
2026-05-04 11:08 44.56878 26.08684 328 ft 0 kts 173°
2026-05-04 11:33 44.56875 26.08685 325 ft 2 kts 174°
2026-05-04 11:33 44.56854 26.08688 324 ft 3 kts 173°
2026-05-04 11:33 44.56829 26.08668 326 ft 6 kts 234°
2026-05-04 11:34 44.56822 26.08598 326 ft 9 kts 283°
2026-05-04 11:34 44.56876 26.08544 325 ft 12 kts 356°
2026-05-04 11:34 44.56965 26.08543 326 ft 14 kts 355°
2026-05-04 11:34 44.57071 26.08528 326 ft 16 kts 354°
2026-05-04 11:35 44.57192 26.08511 325 ft 19 kts 354°
2026-05-04 11:35 44.57326 26.08491 325 ft 19 kts 354°
2026-05-04 11:35 44.57450 26.08473 326 ft 13 kts 354°
2026-05-04 11:35 44.57519 26.08463 327 ft 6 kts 354°
2026-05-04 11:36 44.57574 26.08455 325 ft 9 kts 354°
2026-05-04 11:36 44.57645 26.08447 326 ft 10 kts
2026-05-04 11:36 44.57670 26.08553 327 ft 19 kts 85°
2026-05-04 11:36 44.57713 26.09098 323 ft 100 kts 83°
2026-05-04 11:37 44.57816 26.10435 328 ft 170 kts 83°
2026-05-04 11:37 44.57934 26.12154 956 ft 175 kts 85°
2026-05-04 11:37 44.58027 26.13883 1739 ft 184 kts 83°
2026-05-04 11:37 44.58162 26.15773 2350 ft 204 kts 83°
2026-05-04 11:38 44.58324 26.17848 2962 ft 230 kts 82°
2026-05-04 11:38 44.58508 26.20221 3631 ft 250 kts 81°
2026-05-04 11:38 44.58691 26.22660 4608 ft 257 kts 79°
2026-05-04 11:38 44.58877 26.25161 5679 ft 257 kts 79°
2026-05-04 11:39 44.59058 26.27655 6799 ft 258 kts 81°
2026-05-04 11:39 44.58860 26.30194 7813 ft 270 kts 102°
2026-05-04 11:40 44.46480 26.35208 11549 ft 389 kts 171°
2026-05-04 11:41 44.43715 26.35487 11853 ft 411 kts 176°
2026-05-04 11:41 44.40849 26.34942 12213 ft 430 kts 193°
2026-05-04 11:41 44.38098 26.33223 12809 ft 438 kts 211°
2026-05-04 11:41 44.35753 26.30478 13452 ft 443 kts 228°
2026-05-04 11:42 44.34012 26.26925 14080 ft 445 kts 244°
2026-05-04 11:42 44.33018 26.22857 14655 ft 443 kts 261°
2026-05-04 11:42 44.32498 26.18609 15316 ft 444 kts 263°
2026-05-04 11:42 44.31902 26.14357 16040 ft 448 kts 260°
2026-05-04 11:43 44.31153 26.10116 16762 ft 451 kts 257°
2026-05-04 11:43 44.30324 26.05936 17491 ft 453 kts 257°
2026-05-04 11:43 44.29447 26.01697 18195 ft 455 kts 256°
2026-05-04 11:43 44.28555 25.97444 18781 ft 458 kts 256°
2026-05-04 11:44 44.27659 25.93159 19309 ft 461 kts 256°
2026-05-04 11:44 44.26756 25.88852 19819 ft 465 kts 256°
2026-05-04 11:44 44.25842 25.84510 20325 ft 468 kts 256°
2026-05-04 11:44 44.24923 25.80121 20824 ft 472 kts 256°
2026-05-04 11:45 44.24223 25.75661 21303 ft 472 kts 265°
2026-05-04 11:45 44.24035 25.71103 21864 ft 472 kts 270°
2026-05-04 11:45 44.23940 25.66509 22377 ft 475 kts 271°
2026-05-04 11:45 44.23883 25.61893 22865 ft 478 kts 271°
2026-05-04 11:46 44.23842 25.57230 23339 ft 481 kts 271°
2026-05-04 11:46 44.23806 25.52610 23765 ft 484 kts 271°
2026-05-04 11:46 44.23766 25.47901 24189 ft 485 kts 271°
2026-05-04 11:46 44.23724 25.43140 24685 ft 485 kts 271°
2026-05-04 11:47 44.23678 25.38510 25166 ft 484 kts 270°
2026-05-04 11:47 44.23531 25.33815 25687 ft 483 kts 267°
2026-05-04 11:47 44.23343 25.29140 26229 ft 482 kts 266°
2026-05-04 11:47 44.22822 25.24530 26730 ft 482 kts 256°
2026-05-04 11:48 44.21803 25.20093 27211 ft 480 kts 246°
2026-05-04 11:48 44.20185 25.16036 27741 ft 477 kts 234°
2026-05-04 11:48 44.18234 25.12310 28295 ft 474 kts 230°
2026-05-04 11:48 44.16211 25.08685 28823 ft 473 kts 230°
2026-05-04 11:49 44.14191 25.05080 29362 ft 471 kts 230°
2026-05-04 11:49 44.12179 25.01467 29864 ft 470 kts 230°
2026-05-04 11:49 44.10211 24.97916 30321 ft 469 kts 230°
2026-05-04 11:49 44.08225 24.94329 30779 ft 467 kts 230°
2026-05-04 11:50 44.06248 24.90758 31238 ft 464 kts 230°
2026-05-04 11:50 44.04286 24.87221 31676 ft 462 kts 230°
2026-05-04 11:50 44.02323 24.83688 32121 ft 459 kts 230°
2026-05-04 11:50 44.00377 24.80187 32541 ft 457 kts 230°
2026-05-04 11:51 43.98436 24.76701 32939 ft 455 kts 230°
2026-05-04 11:51 43.96501 24.73230 33116 ft 454 kts 230°
2026-05-04 11:51 43.94568 24.69765 33127 ft 453 kts 230°
2026-05-04 11:52 43.90713 24.62869 33103 ft 450 kts 230°
2026-05-04 11:52 43.80467 24.44621 33098 ft 451 kts 230°
2026-05-04 11:53 43.61936 24.23659 33122 ft 438 kts 177°
2026-05-04 11:53 43.37645 24.23452 33097 ft 440 kts 180°
2026-05-04 11:55 42.39777 24.16765 33105 ft 442 kts 183°
2026-05-04 11:56 42.18493 24.15720 32914 ft 442 kts 183°
2026-05-04 11:56 42.12355 24.15324 33028 ft 440 kts 179°
2026-05-04 11:57 42.06224 24.15011 33088 ft 441 kts 180°
2026-05-04 11:57 41.90308 24.14014 33107 ft 440 kts 180°
2026-05-04 11:58 41.78892 24.13270 33099 ft 441 kts 180°
2026-05-04 11:58 41.54515 24.11898 33065 ft 439 kts 172°
2026-05-04 11:59 41.47742 24.13879 33068 ft 435 kts 163°
2026-05-04 11:59 41.41863 24.15893 33072 ft 436 kts 163°
2026-05-04 12:00 41.35961 24.17881 33077 ft 438 kts 163°
2026-05-04 12:00 41.30053 24.19859 33077 ft 437 kts 163°
2026-05-04 12:01 41.24145 24.21833 33080 ft 437 kts 163°
2026-05-04 12:02 41.02813 24.25275 33092 ft 444 kts 172°
2026-05-04 12:03 40.96712 24.25950 33090 ft 448 kts 173°
2026-05-04 12:03 40.90451 24.26605 33114 ft 449 kts 174°
2026-05-04 12:04 40.84211 24.27154 33101 ft 448 kts 173°
2026-05-04 12:04 40.77975 24.27812 33109 ft 450 kts 173°
2026-05-04 12:05 40.71709 24.28500 33101 ft 453 kts 173°
2026-05-04 12:05 40.65438 24.29195 33108 ft 453 kts 172°
2026-05-04 12:06 40.59167 24.30030 33115 ft 452 kts 172°
2026-05-04 12:06 40.52882 24.30759 33119 ft 458 kts 173°
2026-05-04 12:07 40.46521 24.31450 33120 ft 458 kts 173°
2026-05-04 12:07 40.40195 24.32135 33120 ft 458 kts 173°
2026-05-04 12:08 40.34861 24.32714 33124 ft 460 kts 174°
2026-05-04 12:08 40.28478 24.33404 33120 ft 461 kts 174°
2026-05-04 12:09 40.21039 24.34208 33120 ft 461 kts 174°
2026-05-04 12:09 40.15723 24.34781 33122 ft 461 kts 174°
2026-05-04 12:10 40.09302 24.35473 33123 ft 460 kts 174°
2026-05-04 12:10 40.02925 24.36158 33124 ft 461 kts 174°
2026-05-04 12:11 39.96537 24.36842 33126 ft 460 kts 174°
2026-05-04 12:11 39.90099 24.37533 33136 ft 466 kts 174°